This demonstration page uses our WeatherBlox Daily Observations layout. Learn more.

Left ArrowRight Arrow

31.84235, -102.49876

Hourly Observations for May 15, 2022

Temp ( °F °C ) Dew Point ( °F °C ) Humidity (%) Winds ( mph kmh ) Pressure ( in mb ) Visibility ( mi km ) Precip ( " mm )
12:53 am 00:53 Clear 81 27.2 50 10 34 34 SSW 12 19 29.82 1010 10 16 0.00 0.00
1:53 am 01:53 Clear 78 25.6 52 11.1 40 40 SSW 10 17 29.82 1010 10 16 0.00 0.00
2:53 am 02:53 Clear 77 25 53 11.7 43 43 SSW 12 19 29.81 1009 10 16 0.00 0.00
3:53 am 03:53 Clear 76 24.4 54 12.2 47 47 SSW 10 17 29.80 1009 10 16 0.00 0.00
4:53 am 04:53 Clear 74 23.3 53 11.7 48 48 SSW 9 15 29.80 1009 10 16 0.00 0.00
5:53 am 05:53 Clear 74 23.3 52 11.1 46 46 SSW 10 17 29.80 1009 10 16 0.00 0.00
6:53 am 06:53 Sunny 75 23.9 54 12.2 48 48 SSW 15 24 29.81 1010 10 16 0.00 0.00
7:53 am 07:53 Sunny 75 23.9 55 12.8 50 50 SSW 13 20 29.84 1010 10 16 0.00 0.00
8:53 am 08:53 Sunny 79 26.1 56 13.3 45 45 SW 15 24 29.85 1011 10 16 0.00 0.00
9:53 am 09:53 Sunny 83 28.3 54 12.2 37 37 SSW 13 20 29.86 1011 10 16 0.00 0.00
10:53 am 10:53 Sunny 88 31.1 52 11.1 29 29 SW 8 13 29.87 1011 10 16 0.00 0.00
11:53 am 11:53 Sunny 93 33.9 47 8.3 21 21 W 10 17 29.85 1011 10 16 0.00 0.00
12:53 pm 12:53 Sunny 98 36.7 42 5.6 15 15 WSW 16 26 29.83 1010 10 16 0.00 0.00
1:53 pm 13:53 Sunny 100 37.8 34 1.1 10 10 SW 12 19 29.81 1010 10 16 0.00 0.00
2:53 pm 14:53 Sunny 101 38.3 26 -3.3 7 7 WSW 12 19 29.78 1009 10 16 0.00 0.00
3:53 pm 15:53 Sunny 101 38.3 22 -5.6 6 6 undefined N/A 29.76 1008 10 16 0.00 0.00
4:53 pm 16:53 Sunny 102 38.9 22 -5.6 6 6 VRB 5 7 29.73 1007 10 16 0.00 0.00
5:53 pm 17:53 Sunny 101 38.3 21 -6.1 6 6 S 3 6 29.72 1006 10 16 0.00 0.00
6:53 pm 18:53 Sunny 101 38.3 20 -6.7 5 5 WSW 7 11 29.70 1006 10 16 0.00 0.00
7:53 pm 19:53 Sunny 99 37.2 19 -7.2 5 5 WSW 7 11 29.70 1006 10 16 0.00 0.00
8:53 pm 20:53 Clear 93 33.9 19 -7.2 7 7 Calm 29.72 1007 10 16 0.00 0.00
9:53 pm 21:53 Clear 91 32.8 20 -6.7 7 7 S 3 6 29.74 1007 10 16 0.00 0.00
10:53 pm 22:53 Clear 85 29.4 22 -5.6 10 10 S 7 11 29.76 1008 10 16 0.00 0.00
11:53 pm 23:53 Clear 89 31.7 36 2.2 15 15 E 12 19 29.79 1009 10 16 0.00 0.00

Powered by AerisWeather